Regional Weather Roundup
Issued by NWS Cleveland, OH

Home | Current Version | Previous Version | Graphics & Text | Print | Product List | Glossary On
Versions: 1 2 3 4 5 6 7 8 9 10 11 12 13 14 15 16 17 18 19 20 21 22 23 24 25 26 27 28 29 30 31 32 33 34 35 36 37 38 39 40 41 42 43 44 45 46 47 48 49 50
000
ASUS41 KCLE 301010
RWRCLE
OHIO REGIONAL WEATHER ROUNDUP
NATIONAL WEATHER SERVICE CLEVELAND, OH
600 AM EDT SUN APR 30 2017

NOTE: "FAIR" INDICATES FEW OR NO CLOUDS BELOW 12,000 FEET WITH NO
SIGNIFICANT WEATHER AND/OR OBSTRUCTIONS TO VISIBILITY.

OHZ001>008-015>018-024>027-034-035-043-044-301100-
   NORTHWEST OHIO

CITY           SKY/WX    TMP DP  RH WIND       PRES   REMARKS
DEFIANCE       CLOUDY    46  43  89 E17G25    29.96F
FINDLAY        CLOUDY    48  45  89 E10       29.97R
TOLEDO EXPRESS CLOUDY    47  45  93 E15G24    29.99R
TOLEDO EXEC    CLOUDY    48  46  93 E13G18    30.02R
LIMA           CLOUDY    47  47 100 E12       29.95F
$$

OHZ009>014-019>023-028>033-038-089-301100-
   NORTHEAST OHIO

CITY           SKY/WX    TMP DP  RH WIND       PRES   REMARKS
CLE-HOPKINS    PTCLDY    51  45  79 NE12      30.04F
CLE-LAKEFRONT  CLOUDY    49  45  86 NE17      30.02F
CUY CO. ARPT   NOT AVBL
LORAIN-ELYRIA  CLOUDY    48  44  86 E13       30.01F
ASHTABULA      CLOUDY    48  44  86 NE6       30.06R
AKRON-CANTON   CLOUDY    57  53  86 SE5       30.01F
WOOSTER        CLOUDY    54  53  97 CALM      30.02S FOG
MANSFIELD      FOG       53  53 100 E8        30.00R VSB 1/4
YOUNGSTOWN     CLOUDY    55  52  89 SE5       30.02F
$$

OHZ042-051>053-060>062-070>072-077>081-301100-
  SOUTHWEST OHIO

CITY           SKY/WX    TMP DP  RH WIND       PRES   REMARKS
CINC-COVINGTON PTCLDY    68  64  87 S5        29.92F
CINC-LUNKEN    PTCLDY    63  63 100 N3        29.92F FOG
HAMILTON       PTCLDY    58  58 100 CALM      29.93F FOG
DAYTON         FOG       55  55 100 E9        29.94F VSB 1/2
WRIGHT-PAT AFB CLOUDY    57  57 100 E5        29.94F FOG
DAYTON GENERAL FOG       57  56  96 E10       29.93F VSB 1/2
WILMINGTON     MOCLDY    59  59 100 NE6       29.95S FOG
$$

OHZ036-037-039>041-045>050-054>059-063>069-073>076-082>088-301100-
  CENTRAL AND SOUTHEAST OHIO

CITY           SKY/WX    TMP DP  RH WIND       PRES   REMARKS
COLUMBUS       CLOUDY    59  59 100 E5        29.97S FOG
OSU AIRPORT    CLOUDY    56  56 100 E5        29.97S FOG
BOLTON FIELD   CLOUDY    57  57 100 CALM      29.98S FOG
RICKENBACK AFB FOG       59  59 100 NE7       29.97R VSB 3/4
NEWARK         FOG       58  57  97 CALM      29.98S VSB 1/2
MARION         CLOUDY    51  50  96 E6        29.98F FOG
LANCASTER      CLEAR     62  59  90 CALM      29.98R FOG
ZANESVILLE     FOG       60  59  96 NE3       29.99S VSB 3/4
NEW PHILLY     NOT AVBL
$$



USA.gov is the U.S. government's official web portal to all federal, state and local government web resources and services.